• In Czech Republic
  • List of Countries
  • For 7 days
  • Water Temperature
  • Satellite Maps
  • Weather Map
  • Weather Widgets
  • user-avatar
    Login

    Hourly Weather Ottawa

    Today, 20 February, Tuesday

    Time Temperature Precipitation Wind Pressure Humidity
    00:00 +3°C° 1.1 mm 1 mps 755 mmHg 98%
    01:00 +2°C° 0 mm 1 mps 755 mmHg 97%
    02:00 +2°C° 0.5 mm 1 mps 755 mmHg 97%
    03:00 +2°C° 0.5 mm 1 mps 756 mmHg 97%
    04:00 +2°C° 0.5 mm 1 mps 756 mmHg 98%
    05:00 +1°C° 0.5 mm 2 mps 756 mmHg 98%
    06:00 +1°C° 0.5 mm 2 mps 756 mmHg 97%
    07:00 +1°C° 0 mm 2 mps 755 mmHg 98%
    08:00 +1°C° 1 mm 2 mps 755 mmHg 98%
    09:00 +2°C° 1 mm 2 mps 755 mmHg 98%
    10:00 +1°C° 1 mm 3 mps 755 mmHg 99%
    11:00 +2°C° 0.9 mm 2 mps 754 mmHg 99%
    12:00 +2°C° 0.9 mm 2 mps 754 mmHg 99%
    13:00 +3°C° 0.9 mm 2 mps 754 mmHg 99%
    14:00 +3°C° 0.4 mm 2 mps 754 mmHg 99%
    15:00 +4°C° 0.4 mm 2 mps 754 mmHg 99%
    16:00 +5°C° 0.4 mm 2 mps 754 mmHg 99%
    17:00 +5°C° 0.4 mm 2 mps 754 mmHg 99%
    18:00 +5°C° 0.4 mm 2 mps 754 mmHg 99%
    19:00 +6°C° 0.4 mm 2 mps 755 mmHg 99%
    20:00 +5°C° 0.9 mm 3 mps 754 mmHg 98%
    21:00 +7°C° 0.9 mm 3 mps 754 mmHg 98%
    22:00 +7°C° 0.9 mm 3 mps 754 mmHg 98%
    23:00 +8°C° 1.1 mm 3 mps 754 mmHg 98%

    Tomorrow, 21 February, Wednesday

    Time Temperature Precipitation Wind Pressure Humidity
    00:00 +8°C° 1.1 mm 3 mps 754 mmHg 98%
    01:00 +8°C° 1.1 mm 4 mps 753 mmHg 98%
    02:00 +8°C° 0.4 mm 4 mps 753 mmHg 96%
    03:00 +10°C° 0.4 mm 4 mps 753 mmHg 94%
    04:00 +10°C° 0.4 mm 5 mps 752 mmHg 93%
    05:00 +10°C° 0 mm 5 mps 752 mmHg 93%
    06:00 +10°C° 0 mm 5 mps 753 mmHg 93%
    07:00 +10°C° 0 mm 5 mps 753 mmHg 93%
    08:00 +10°C° 1.1 mm 4 mps 753 mmHg 94%
    09:00 +10°C° 1.1 mm 4 mps 753 mmHg 95%
    10:00 +8°C° 1.1 mm 4 mps 753 mmHg 96%
    11:00 +7°C° 1 mm 4 mps 754 mmHg 92%
    12:00 +5°C° 1 mm 4 mps 755 mmHg 89%
    13:00 +3°C° 1 mm 5 mps 756 mmHg 86%
    14:00 +3°C° 0 mm 5 mps 758 mmHg 82%
    15:00 +2°C° 0 mm 5 mps 759 mmHg 77%
    16:00 +2°C° 0 mm 5 mps 761 mmHg 72%
    17:00 +1°C° 0 mm 5 mps 762 mmHg 72%
    18:00 -1°C° 0 mm 4 mps 763 mmHg 73%
    19:00 -1°C° 0 mm 3 mps 765 mmHg 73%
    20:00 -2°C° 0 mm 3 mps 766 mmHg 71%
    21:00 -2°C° 0 mm 3 mps 767 mmHg 69%
    22:00 -4°C° 0 mm 3 mps 767 mmHg 66%
    23:00 -4°C° 0 mm 3 mps 768 mmHg 65%

    Day after tomorrow, 22 February, Thursday

    Time Temperature Precipitation Wind Pressure Humidity
    00:00 -5°C° 0 mm 3 mps 768 mmHg 63%
    01:00 -5°C° 0 mm 3 mps 769 mmHg 61%
    02:00 -5°C° 0 mm 3 mps 769 mmHg 60%
    03:00 -5°C° 0 mm 3 mps 770 mmHg 59%
    04:00 -5°C° 0 mm 2 mps 770 mmHg 58%
    05:00 -5°C° 0 mm 2 mps 770 mmHg 57%
    06:00 -5°C° 0 mm 2 mps 771 mmHg 57%
    07:00 -5°C° 0 mm 2 mps 771 mmHg 57%
    08:00 -5°C° 0 mm 2 mps 771 mmHg 54%
    09:00 -4°C° 0 mm 2 mps 771 mmHg 52%
    10:00 -4°C° 0 mm 2 mps 772 mmHg 49%
    11:00 -4°C° 0 mm 2 mps 771 mmHg 46%
    12:00 -3°C° 0 mm 2 mps 771 mmHg 44%
    13:00 0°C° 0 mm 1 mps 771 mmHg 41%
    14:00 -2°C° 0 mm 2 mps 771 mmHg 41%
    15:00 -2°C° 0 mm 2 mps 770 mmHg 41%
    16:00 -2°C° 0 mm 2 mps 770 mmHg 41%
    17:00 0°C° 0 mm 1 mps 770 mmHg 44%
    18:00 -1°C° 0 mm 1 mps 770 mmHg 48%
    19:00 -1°C° 0 mm 1 mps 771 mmHg 51%
    20:00 -1°C° 0 mm 1 mps 771 mmHg 51%
    21:00 -1°C° 0 mm 1 mps 771 mmHg 52%
    22:00 -1°C° 0 mm 1 mps 771 mmHg 53%
    23:00 -2°C° 0 mm 1 mps 770 mmHg 53%

    23 February, Friday

    Time Temperature Precipitation Wind Pressure Humidity
    00:00 -2°C° 0 mm 1 mps 770 mmHg 54%
    01:00 -2°C° 0 mm 1 mps 770 mmHg 54%
    02:00 -2°C° 0 mm 1 mps 769 mmHg 55%
    03:00 -2°C° 0 mm 1 mps 769 mmHg 55%
    04:00 -4°C° 0 mm 2 mps 768 mmHg 56%
    05:00 -4°C° 0 mm 2 mps 768 mmHg 55%
    06:00 -5°C° 0 mm 3 mps 768 mmHg 54%
    07:00 -5°C° 0 mm 3 mps 767 mmHg 53%
    08:00 -4°C° 0 mm 3 mps 767 mmHg 50%
    09:00 -4°C° 0 mm 3 mps 766 mmHg 47%
    10:00 -3°C° 0 mm 4 mps 765 mmHg 45%
    11:00 -3°C° 0 mm 4 mps 764 mmHg 45%
    12:00 -2°C° 0 mm 4 mps 763 mmHg 45%
    13:00 -2°C° 0 mm 4 mps 762 mmHg 46%
    14:00 -2°C° 0.4 mm 3 mps 761 mmHg 57%
    15:00 -2°C° 0.4 mm 3 mps 760 mmHg 69%
    16:00 -4°C° 0.4 mm 3 mps 759 mmHg 81%
    17:00 -4°C° 0.7 mm 3 mps 758 mmHg 85%
    18:00 -3°C° 0.7 mm 2 mps 757 mmHg 89%
    19:00 -3°C° 0.7 mm 2 mps 756 mmHg 92%
    20:00 -1°C° 0.3 mm 1 mps 756 mmHg 93%
    21:00 0°C° 0.3 mm 1 mps 755 mmHg 94%
    22:00 -1°C° 0.3 mm 0 mps 755 mmHg 95%
    23:00 0°C° 0.1 mm 1 mps 754 mmHg 94%

    24 February, Saturday

    Time Temperature Precipitation Wind Pressure Humidity
    00:00 0°C° 0.1 mm 1 mps 754 mmHg 94%
    01:00 0°C° 0.1 mm 1 mps 754 mmHg 94%
    02:00 0°C° 0 mm 1 mps 754 mmHg 94%
    03:00 0°C° 0 mm 1 mps 754 mmHg 94%
    04:00 -1°C° 0 mm 1 mps 753 mmHg 94%
    05:00 0°C° 0 mm 1 mps 754 mmHg 94%
    06:00 0°C° 0 mm 1 mps 754 mmHg 93%
    07:00 0°C° 0 mm 1 mps 754 mmHg 93%
    08:00 +1°C° 0 mm 1 mps 754 mmHg 91%
    09:00 +2°C° 0 mm 1 mps 754 mmHg 88%
    10:00 +2°C° 0 mm 2 mps 754 mmHg 86%
    11:00 +2°C° 0 mm 2 mps 754 mmHg 83%
    12:00 +3°C° 0 mm 2 mps 754 mmHg 80%
    13:00 +3°C° 0 mm 2 mps 753 mmHg 77%
    14:00 +3°C° 0 mm 2 mps 754 mmHg 78%
    15:00 +4°C° 0 mm 1 mps 754 mmHg 78%
    16:00 +4°C° 0 mm 1 mps 754 mmHg 79%
    17:00 +3°C° 0 mm 1 mps 754 mmHg 82%
    18:00 +2°C° 0 mm 1 mps 754 mmHg 85%
    19:00 -1°C° 0 mm 2 mps 754 mmHg 87%
    20:00 -1°C° 0 mm 2 mps 754 mmHg 88%
    21:00 -2°C° 0 mm 2 mps 755 mmHg 89%
    22:00 -2°C° 0 mm 2 mps 755 mmHg 89%
    23:00 -2°C° 0 mm 2 mps 754 mmHg 88%

    25 February, Sunday

    Time Temperature Precipitation Wind Pressure Humidity
    00:00 -2°C° 0 mm 2 mps 754 mmHg 87%
    01:00 -2°C° 0 mm 3 mps 753 mmHg 85%
    02:00 -2°C° 0 mm 3 mps 752 mmHg 86%
    03:00 -3°C° 0 mm 4 mps 752 mmHg 86%
    04:00 -2°C° 0 mm 5 mps 751 mmHg 86%
    05:00 -2°C° 0 mm 5 mps 750 mmHg 85%
    06:00 -3°C° 0 mm 6 mps 749 mmHg 85%
    07:00 -2°C° 0 mm 7 mps 747 mmHg 85%
    08:00 -2°C° 2 mm 7 mps 746 mmHg 87%
    09:00 -2°C° 2 mm 7 mps 744 mmHg 89%
    10:00 -1°C° 2 mm 8 mps 742 mmHg 91%
    11:00 0°C° 3.4 mm 8 mps 740 mmHg 91%
    12:00 +1°C° 3.4 mm 8 mps 738 mmHg 90%
    13:00 +2°C° 3.4 mm 8 mps 736 mmHg 90%
    14:00 +4°C° 2.3 mm 7 mps 735 mmHg 89%
    15:00 +5°C° 2.3 mm 6 mps 734 mmHg 89%
    16:00 +7°C° 2.3 mm 5 mps 734 mmHg 88%
    17:00 +5°C° 0.1 mm 6 mps 734 mmHg 85%
    18:00 +4°C° 0.1 mm 7 mps 735 mmHg 81%
    19:00 +4°C° 0.1 mm 8 mps 735 mmHg 78%
    20:00 +2°C° 0 mm 8 mps 737 mmHg 74%
    21:00 +1°C° 0 mm 9 mps 738 mmHg 70%
    22:00 +1°C° 0 mm 9 mps 740 mmHg 66%
    23:00 0°C° 0 mm 8 mps 741 mmHg 65%
    Show more